Location: Newark
(43.0000°N, 1.6781°W)
Time: 07:29:40
(UTC+00:00)

Courier 1B Rocket - Pass Details

Date: 26 April 2021
Orbit: 920 x 1202 km, 28.2° (Epoch: 09 May)

Event Time Altitude Azimuth Distance (km) Brightness Sun altitude
Rises 20:17:10 0° 250° (WSW) 3,620 8.5 -13.1°
Reaches altitude 10° 20:20:30 10° 233° (SW) 2,713 7.6 -13.6°
Maximum altitude 20:25:00 20° 189° (S) 2,160 6.6 -14.3°
Enters shadow 20:28:05 15° 158° (SSE) 2,493 6.6 -14.7°
